Location: Bli��� Lhota
(48.7570°N, 14.0120°E)
Time: 23:03:59
(UTC+00:00)

CREW DRAGON DEMO-1 DEB - Pass Details

Date: 18 September 2020
Orbit: 361 x 362 km, 51.6° (Epoch: 31 October)

Event Time Altitude Azimuth Distance (km) Brightness Sun altitude
Rises 18:40:38 0° 281° (WNW) 2,196 8.5 -15.5°
Reaches altitude 10° 18:42:42 10° 288° (WNW) 1,350 7.0 -15.8°
Maximum altitude 18:45:38 46° 4° (N) 499 3.5 -16.2°
Enters shadow 18:46:32 33° 53° (NE) 632 3.6 -16.4°
